Regional Weather Roundup
Issued by NWS San Angelo, TX

Home | Current Version | Previous Version | Graphics & Text | Print | Product List | Glossary Off
Versions: 1 2 3 4 5 6 7 8 9 10 11 12 13 14 15 16 17 18 19 20 21 22 23 24 25 26 27 28 29 30 31 32 33 34 35 36 37 38 39 40 41 42 43 44 45 46 47 48 49 50

000
ASUS44 KSJT 290511
RWRSJT
WEST CENTRAL TEXAS REGIONAL WEATHER ROUNDUP
NATIONAL WEATHER SERVICE SAN ANGELO TX
1200 AM CDT THU SEP 29 2016

NOTE: "FAIR" INDICATES FEW OR NO CLOUDS BELOW 12,000 FEET WITH NO
SIGNIFICANT WEATHER AND/OR OBSTRUCTIONS TO VISIBILITY.

TXZ049-054-064>066-071>073-076>078-098-099-113-114-127-128-139-140-
154-155-168>170-290600
...LOCATIONS ACROSS WEST CENTRAL TEXAS...

CITY           SKY/WX    TMP DP  RH WIND       PRES   REMARKS
SAN ANGELO     CLEAR     60  55  83 CALM      30.18R
ABILENE        CLEAR     62  56  80 S5        30.19R
DYESS AFB      CLEAR     62  55  80 W2        30.17R
JUNCTION       CLEAR     66  59  78 CALM      30.17R
SWEETWATER     CLEAR     71  46  41 CALM      30.23R
BROWNWOOD      PTCLDY    61  55  82 NE3       30.16R
COLEMAN        CLEAR     62  55  76 NW5       30.17S
SONORA         CLEAR     68  55  64 CALM      30.22S
OZONA          FAIR      68  52  56 N3        30.22S
BRADY          NOT AVBL
$$

TEXAS PANHANDLE/OKLAHOMA PANHANDLE

CITY           SKY/WX    TMP DP  RH WIND       PRES   REMARKS
AMARILLO       CLEAR     59  48  67 SE9       30.31R
BORGER         CLEAR     67  49  52 E6        30.30R
CANADIAN       CLEAR     61  53  74 CALM      30.29R
DALHART        CLEAR     63  43  48 E12       30.33R
DUMAS          CLEAR     62  46  54 E8        30.32R
GUYMON         NOT AVBL
HEREFORD       PTCLDY    58  44  60 E14       30.32R
PAMPA          CLEAR     61  51  69 SE9       30.32R
PERRYTON       CLEAR     59  48  67 E8        30.30S
$$

SOUTHERN PANHANDLE/SOUTH PLAINS/ROLLING PLAINS

CITY           SKY/WX    TMP DP  RH WIND       PRES   REMARKS
LUBBOCK        CLOUDY    63  49  60 CALM      30.26R
SNYDER           N/A     66  55  67 NE5       30.22S
CHILDRESS      CLEAR     66  54  65 E6        30.24R
SEMINOLE       CLEAR     62  49  64 CALM      30.26R
$$

PERMIAN BASIN

CITY           SKY/WX    TMP DP  RH WIND       PRES   REMARKS
MIDLAND        CLEAR     65  48  54 CALM      30.22R
ODESSA         CLEAR     65  48  54 E8        30.23R
WINK           CLEAR     64  52  64 E6        30.21R
$$

FAR WEST/SOUTHWEST MOUNTAINS/TRANS PECOS

CITY           SKY/WX    TMP DP  RH WIND       PRES   REMARKS
ALPINE         PTCLDY    64  59  85 CALM      30.36R
DRYDEN         NOT AVBL
EL PASO        FAIR      74  53  48 E12       30.21R
FORT STOCKTON  CLEAR     67  60  78 S7        30.22R
GUADALUPE PASS CLEAR     63  51  65 NE26      30.34R
MARFA          CLEAR    N/A N/A N/A N6        30.33R
PECOS          CLEAR     68  62  80 E3        30.20R
$$

DALLAS/FORT WORTH METROPLEX

CITY           SKY/WX    TMP DP  RH WIND       PRES   REMARKS
DFW AIRPORT    PTCLDY    74  58  57 N10       30.09R
FTW MEACHAM    CLEAR     74  58  57 N10       30.10R
DAL-EXECUTIVE  CLEAR     71  58  63 NW7       30.09R
GRAND PRAIRIE  CLEAR     75  56  50 CALM      30.11R
ADDISON        CLEAR     77  59  52 N12       30.12R
MESQUITE       CLEAR     68  58  71 N5        30.09R
LANCASTER      CLEAR     72  54  52 NW3       30.09R
$$

NORTH CENTRAL TEXAS

CITY           SKY/WX    TMP DP  RH WIND       PRES   REMARKS
SHRMAN/DENISON CLEAR     71  49  45 NE12      30.15R
GAINESVILLE      N/A     69  51  53 N8        30.16R
BRIDGEPORT     CLEAR     65  63  92 CALM      30.15R
DENTON         CLEAR     67  59  75 N7        30.12R
WAXAHACHIE     CLEAR     68  56  63 NW5       30.10S
GRANBURY       CLEAR     64  56  78 NW3       30.12R
$$

WESTERN NORTH TEXAS

CITY           SKY/WX    TMP DP  RH WIND       PRES   REMARKS
WICHITA FALLS  CLEAR     67  53  61 NE16      30.17R
VERNON         CLEAR     66  51  58 NE7       30.20R
BRECKENRIDGE     N/A     64  58  81 N8G18     30.16R
COMANCHE       PTCLDY    66  55  66 W5        30.15S
$$

CENTRAL AND SOUTH CENTRAL TEXAS

CITY           SKY/WX    TMP DP  RH WIND       PRES   REMARKS
AUSTIN/BERGSTM CLEAR     64  61  90 W3        30.09S
WACO           CLEAR     59  57  93 SW6       30.09R
HILLSBORO      CLEAR     60  55  81 CALM      30.10R
TEMPLE         CLEAR     59  56  89 NW6       30.11R
KILLEEN-GRAY   CLEAR     65  55  67 CALM      30.11R
FORT HOOD      CLEAR     65  53  65 CALM      30.09R
GEORGETOWN     CLEAR     64  55  72 W3        30.11R
LAGO VISTA     FAIR      74  47  38 CALM      30.13S
SAN MARCOS     CLEAR     64  61  88 NW6       30.12S
NEW BRAUNFELS  CLEAR     68  65  90 NW6       30.09R
RANDOLPH AFB   CLEAR     70  68  95 N6        30.10R
SAN ANTONIO    PTCLDY    73  65  75 NW6       30.11R
STINSON        CLEAR     73  66  78 CALM      30.08R
PLEASANTON     NOT AVBL
LA GRANGE      CLEAR     69  67  93 CALM      30.06S
GIDDINGS       CLEAR     65  62  90 CALM      30.12S
$$

EAST TEXAS

CITY           SKY/WX    TMP DP  RH WIND       PRES   REMARKS
PARIS          CLEAR     68  54  60 N12       30.10R
CLARKSVILLE    NOT AVBL
TYLER          CLEAR     69  55  60 W3        30.06S
LONGVIEW       CLEAR     68  57  68 CALM      30.05R
PALESTINE      CLEAR     60  59  97 CALM      30.08S
NACOGDOCHES    CLEAR     59  57  94 CALM      30.05S
$$

TEXAS HILL COUNTRY AND EDWARDS PLATEAU

CITY           SKY/WX    TMP DP  RH WIND       PRES   REMARKS
LLANO          CLEAR     61  61 100 CALM      30.16R
HORSESHOE BAY  FAIR      62  58  87 CALM      30.13R
KERRVILLE      CLEAR     66  62  87 CALM      30.15S
FREDERICKSBRG  CLEAR     63  59  86 CALM      30.16R
ROCKSPRINGS    CLEAR     72  64  78 CALM      30.21R
HONDO          CLEAR     71  66  84 NE5       30.11R
UVALDE         CLEAR     71  68  91 CALM      30.12R
DEL RIO        PTCLDY    73  68  84 CALM      30.11R
$$

SOUTHEAST TEXAS

CITY           SKY/WX    TMP DP  RH WIND       PRES   REMARKS
COLLEGE STN    CLEAR     68  61  78 W3        30.08R
CALDWELL       NOT AVBL
CROCKETT       NOT AVBL
BRENHAM        CLEAR     69  63  82 CALM      30.09S
HUNTSVILLE     CLEAR     64  59  83 S3        30.07S
CONROE         CLEAR     62  60  93 CALM      30.07S
HOUSTON BUSH   CLEAR     69  64  84 CALM      30.06S
HOUSTON HOBBY  CLEAR     76  69  79 CALM      30.05S
PERLAND        CLEAR     76  70  82 CALM      30.06S
WHARTON        CLEAR     70  66  87 CALM      30.07S
$$

THE UPPER TEXAS COAST

CITY           SKY/WX    TMP DP  RH WIND       PRES   REMARKS
ORANGE         CLEAR     65  65 100 CALM      30.06S
PORT ARTHUR    CLEAR     66  62  87 NW3       30.04S
GALVESTON      CLEAR     79  71  76 CALM      30.05S
ANGLETON       CLEAR     73  70  90 CALM      30.05S
BAY CITY       CLEAR     73  72  98 CALM      30.06R FOG
$$

TEXAS COASTAL BEND, RIO GRANDE PLAINS DEEP SOUTH TEXAS

CITY           SKY/WX    TMP DP  RH WIND       PRES   REMARKS
VICTORIA       CLEAR     72  66  81 N6        30.06S
BEEVILLE       FAIR      71  71 100 CALM      30.07R
ROCKPORT       CLEAR     75  70  84 CALM      30.05R
PORT ARANSAS   CLEAR     79  70  73 CALM      30.05R
PORT LAVACA    CLEAR     74  71  89 CALM      30.06R
CORPUS CHRISTI CLEAR     76  72  87 CALM      30.05S
KINGSVILLE NAS PTCLDY    76  72  87 CALM      30.06R
COTULLA        CLEAR     76  68  76 CALM      30.08R
LAREDO         CLEAR     78  71  79 SE3       30.09R
BROWNSVILLE    PTCLDY    78  76  93 CALM      30.04R
PORT ISABEL    CLEAR     79  76  90 NE6       30.03S
HEBBRONVILLE   CLEAR     74  69  84 CALM      30.10R
MCALLEN        CLEAR     79  72  79 CALM      30.06S
WESLACO        CLEAR     76  72  88 CALM      30.05R
FALFURRIAS     CLEAR     75  68  79 CALM      30.06S
EDINBURG       CLEAR     76  70  83 CALM      30.06S
$$




USA.gov is the U.S. government's official web portal to all federal, state and local government web resources and services.